Location: Banksville Park
(38.5557°N, 75.1182°W)
Time: 10:14:13
(UTC+00:00)

CENTAUR R/B - Pass Details

Date: 17 January 2021
Orbit: 742 x 1446 km, 63.5° (Epoch: 02 March)

Event Time Altitude Azimuth Distance (km) Brightness Sun altitude
Rises 22:30:27 0° 319° (NW) 4,299 6.1 -5.2°
Reaches altitude 10° 22:33:23 10° 313° (NW) 3,401 5.7 -5.7°
Maximum altitude 22:41:05 40° 248° (WSW) 1,990 4.9 -7.1°
Drops below altitude 10° 22:49:09 10° 183° (S) 3,545 5.7 -8.6°
Sets 22:52:18 0° 176° (S) 4,497 6.2 -9.2°
